Regional Weather Roundup
Issued by NWS

Home | Current Version | Previous Version | Text Only | Print | Product List | Glossary On
Versions: 1 2 3 4 5 6 7 8 9 10 11 12 13 14 15 16 17 18 19 20 21 22 23 24 25 26 27 28 29 30 31 32 33 34 35 36 37 38 39 40 41 42 43 44 45 46 47 48 49 50
000
ASUS46 KSTO 232315
RWRCA

NORTHERN AND CENTRAL CA REGIONAL WEATHER ROUNDUP
NATIONAL WEATHER SERVICE SACRAMENTO CA
300 PM PST THU FEB 23 2017

NOTE: FAIR INDICATES FEW OR NO CLOUDS BELOW 12,000 FEET WITH NO
SIGNIFICANT WEATHER AND/OR OBSTRUCTIONS TO VISIBILITY.

CAZ001-003-240000-
NORTHWEST AREA

CITY           SKY/WX    TMP DP  RH WIND       PRES   REMARKS
CRESCENT CITY  FAIR      48  35  60 NW12      30.28F
UKIAH          FAIR      51  28  41 VRB7      30.18S
$$

CAZ006-505>513-240000-
BAY AREA

CITY           SKY/WX    TMP DP  RH WIND       PRES   REMARKS
SANTA ROSA     FAIR      55  25  31 N12G17    30.16F
SAN RAFAEL     N/A       51  MM  MM MISG
NAPA           FAIR      54  31  41 SW6       30.18F
CONCORD        FAIR      53  28  38 NW3       30.18F
OAKLAND CITY   N/A      MM  MM  MM MISG
OAKLAND        FAIR      54  34  46 W10       30.19F
SAN FRAN CITY  N/A       50  MM  50 MISG
SAN FRAN ARPT  FAIR      53  34  48 W15       30.19F
LIVERMORE      FAIR      50  26  39 NW6       30.16F
HAYWARD        FAIR      54  29  38 W13       30.18F
REDWOOD CITY   N/A       52  MM  48 MISG
MOFFETT ARPT   FAIR      52  36  54 N14       30.20F
SAN JOSE ARPT  FAIR      53  31  42 NW14      30.19F
$$
CAZ034-037-514>518-240000-
CENTRAL COAST

CITY           SKY/WX    TMP DP  RH WIND       PRES   REMARKS
WATSONVILLE    PTSUNNY   52  30  43 W8        30.17S
SALINAS        FAIR      54  31  41 W17       30.17F
MONTEREY       FAIR      52  35  52 W14G24    30.20S
SAN LUIS OBISP FAIR      57  38  48 W16G28    30.13F
SANTA MARIA    FAIR      54  40  59 NW24G30   30.13F
$$
CAZ015-016-240000-
NORTHERN SACRAMENTO VALLEY

CITY           SKY/WX    TMP DP  RH WIND       PRES   REMARKS
REDDING        FAIR      54  24  31 N6        30.13F
RED BLUFF      FAIR      53  23  31 S5        30.16F
OROVILLE       FAIR      52  32  46 W7        30.18F
$$
CAZ016>018-240000-
SOUTHERN SACRAMENTO VALLEY

CITY           SKY/WX    TMP DP  RH WIND       PRES   REMARKS
AUBURN         FAIR      46  32  57 W9        30.15S
BEALE AFB      SUNNY     51  32  47 NW8       30.16F
LINCOLN        FAIR      52  28  40 W8        30.17F
MARYSVILLE     FAIR      52  30  43 VRB7      30.18F
SAC INTL ARPT  FAIR      51  34  52 W6        30.18F
MATHER AIRPORT MOSUNNY  N/A N/A N/A W5        30.18F
DOWNTOWN SAC   N/A       53  MM  MM MISG
SAC EXEC ARPT  FAIR      52  29  41 NW6       30.18F
VACAVILLE      FAIR      53  33  46 VRB3      30.19F
TRAVIS AFB     FAIR      53  34  48 CALM      30.17F
$$
CAZ019>021-240000-
SAN JOAQUIN VALLEY

CITY           SKY/WX    TMP DP  RH WIND       PRES   REMARKS
STOCKTON       FAIR      54  34  46 NW9       30.17S
MODESTO        FAIR      53  33  46 NW10      30.16F
MERCED         FAIR      54  29  38 NW15      30.15F
LEMOORE        FAIR      53  31  42 NW16      30.16S
FRESNO         FAIR      52  33  48 NW16      30.15S
HANFORD        FAIR      54  34  46 NW9       30.17S
PORTERVILLE    FAIR      51  36  56 W12       30.17R
BAKERSFIELD    PTSUNNY   51  32  48 NW13      30.15S
$$
CAZ011-012-071-240000-
NORTHERN MOUNTAINS

CITY           SKY/WX    TMP DP  RH WIND       PRES   REMARKS
YREKA          PTSUNNY   34  26  72 W10       30.16S WCI  26
MOUNT SHASTA   FAIR      37  14  38 N8G20     30.10R WCI  31
ALTURAS        PTSUNNY   31  15  52 NW13      30.05F WCI  21
$$
CAZ011-012-071-240000-
SIERRA NEVADA MTNS

CITY           SKY/WX    TMP DP  RH WIND       PRES   REMARKS
BLUE CANYON    CLOUDY    25  23  92 VRB5      30.03R WCI  19
TAHOE VLY ARPT CLOUDY    29  11  47 NE12      29.95S WCI  19
MAMMOTH LAKES  FAIR      28   8  42 NW16      29.91S WCI  15
$$




USA.gov is the U.S. government's official web portal to all federal, state and local government web resources and services.